Tracking 20626 objects as of 8-Apr-2020
HD Live streaming from Space Station
objects crossing your sky now

CZ-3B R/B

Track CZ-3B R/B now!


NORAD ID: 44077
Int'l Code: 2019-017B
Perigee: 186.6 km
Apogee: 31,901.3 km
Inclination: 26.7 °
Period: 556.6 minutes
Semi major axis: 22414 km
RCS: Unknown
Launch date: March 31, 2019
Source: People's Republic of China (PRC)
Launch site: Xichang Space Center, China (XSC)

Note: This is a ROCKET BODY
aabbcc
Your satellite tracking list
Your tracking list is empty




NASA's NSSDC Master Catalog

Two Line Element Set (TLE):
1 44077U 19017B   20099.26291160  .00055251  19839-6  20176-2 0  9999
2 44077  26.7294 273.5166 7074457  69.4568 349.5705  2.58699915  9046
Source of the keplerian elements: AFSPC